Погода Гулбене

Погода Гулбене : погода сейчас, прогноз погоды и архив. Всё, что Вы хотите узнать о погоде Гулбене!

Поиск расширенной информации на нашем сайте:

Другие новости

Новости СМИ2

Главная страница сайта

Новости сайта

03.07.2017

Напоминаем, что на нашем специализированном сайте Метеоцентр.Азия вы можете получить высокодетализированные автоматические прогнозы погоды по пунктам России, СНГ и мира в авиационном формате (включающие направление и скорость ветра, видимость, явления погоды, количество и форму облачности, нижнюю и верхнюю границу облачности).


Погода Гулбене - сегодня

Время (UTC), дата Ветер
(°,м/с) 
Видим.   Явления Облачность Т
(°С)
Тd
(°С)
f(%) Тe
(°С)
Pmin
(гПа)
dP
(гПа)
Po
(мм)
O2
(г/м3)
Тmin Tmax R s Состояние
почвы
00 17.10.17 280 (З) 2-3  н/о    н/о 
+8.4 +7.7 95 +8  1015.8  1.6  749  291           
03 17.10.17 260 (З) 2-2  н/о    н/о 
+6.9 +6.5 97 +7  1017.4  1.6  750  294           
06 17.10.17 260 (З) 2-3  н/о    н/о 
+6.7 +5.8 94 +7  1018.6  1.2  751  294           
09 17.10.17 190 (Ю) 2-2  н/о    н/о 
+9.8 +9.2 96 +10  1017.8  -0.6  750  290           
12 17.10.17 180 (Ю) 2-4  н/о    н/о 
+11.3 +10.5 95 +14  1015.1  -2.6  749  288           
15 17.10.17 220 (ЮЗ) 3-7  н/о    н/о 
+11.9 +10.7 92 +14  1012.9  -2.1  747  286           
18 17.10.17 210 (ЮЗ) 4-9  н/о    н/о 
+12.8 +11.2 90 +15  1009.3  -3.3  744  284           
21 17.10.17 240 (ЮЗ) 5-10  н/о    н/о 
+13.7 +10.5 81 +15  1007.8  -1.4  743  283           
00 18.10.17 230 (ЮЗ) 4-6  н/о    н/о 
+11.9 +8.7 81 +11  1007.5  -0.5  743  285           
03 18.10.17 220 (ЮЗ) 4-7  н/о    н/о 
+10.8 +7.9 82 +10  1006.4  -1.1  742  286           
06 18.10.17 230 (ЮЗ) 5-9  н/о    н/о 
+10.5 +7.4 81 +9  1005.6  -0.8  741  286           
12 18.10.17 250 (З) 4-8  н/о    н/о 
+11.3 +9.8 90 +12  1007  0.9  743  286           
15 18.10.17 280 (З) 3-6  н/о    н/о 
+9.2 +7.4 88 +9  1009.8  2.5  745  289           
18 18.10.17 270 (З) 2-4  н/о    н/о 
+5.6 +4.4 92 +5  1012.5  2.4  746  294           
21 18.10.17 260 (З) 3-4  н/о    н/о 
+4.8 +3.3 90 +4  1013.9  1.3  747  295           
00 19.10.17 260 (З) 3-4  н/о    н/о 
+3.9 +3 94 +3  1015  1.1  748  297           
03 19.10.17 240 (ЮЗ) 2-3  н/о    н/о 
+3.7 +3.1 96 +3  1015.9  0.8  749  297           
06 19.10.17 250 (З) 2-2  н/о    н/о 
+4.6 +3.9 95 +4  1017.3  1.4  750  296           
09 19.10.17 260 (З) 2-3  н/о    н/о 
+9.4 +6.1 80 +9  1018.5  1.5  751  291           
12 19.10.17 290 (З) 2-4  н/о    н/о 
+10.1 +4.1 66 +10  1018.9  0.5  751  291           
15 19.10.17 260 (З) 1-2  н/о    н/о 
+6.9 +4.5 85 +8  1019.8  0.7  752  295           
18 19.10.17 280 (З) 1-2  н/о    н/о 
+4.4 +3.9 97 +5  1020.8  0.9  752  298           
21 19.10.17 280 (З) 1-2  н/о    н/о 
+3.4 +2.9 97 +4  1021.9  753  299           
00 20.10.17 280 (З) 2-2  н/о    н/о 
+2.2 +2.1 99 +2  1022.3  0.3  753  301           
03 20.10.17 280 (З) 1-2  н/о    н/о 
+1.3 +1.3 100 +2  1023  0.6  754  302           
Время (UTC), дата Ветер
(°,м/с) 
Видим.   Явления Облачность Т
(°С)
Тd
(°С)
f(%) Тe
(°С)
Pmin
(гПа)
dP
(гПа)
Po
(мм)
O2
(г/м3)
Тmin Tmax R s Состояние
почвы

Для получения пояснительной информации подведите курсор к названию столбца.

ПОГОДА Гулбене - архив

Всё, что Вы хотите узнать о погоде Гулбене - удобно и подробно!

Выберите нужную дату (начиная с 1 января 2015* года) и нажмите кнопку "Найти".
Будут отображены архивные сводки погоды по пункту Гулбене, начиная с указанной даты.


Отображать данные в формате CSV (для использования в таблицах Excel)


Внимание! Наш архив погоды предназначен исключительно для личного некоммерческого использования в познавательных целях. Если Вам необходимы официальные справки о состоянии погоды (для производственных, юридических, коммерческих и т.п. целей), обращайтесь в органы Росгидромета.

*Примечание: данная дата относится к архиву по метеостанциям СССР (Россия, СНГ, Балтия).
Архив по метеостанциям Зарубежной Европы и Азии (кроме Китая) хранится 10 дней, по другим регионам земного шара (Китай, Африка, Америка, Австралия, Океания) - 1 день.

Гулбене - район местоположения метеостанции


Название, широта, долгота, высота метеостанции:
Гулбене 57.1°ш. 26.7°д. 143 м над ур. моря [Латвия]

Дополнительная информация

В oтличие oт бoльшинства пoгoдных сайтoв мы публикуем пoдрoбную метеoинфoрмацию в детальнoм прoфессиoнальнoм фoрмате.

Характеристики температуры и влажнoсти вoздуха измеряются на высoте 2 м в тени вдали oт зданий и деревьев.
Скoрoсть ветра измеряется на высoте 10 м (на урoвне рoста челoвека скoрoсть ветра ниже в 1.5-2 раза). Если метеoстанция нахoдится в гoрoде или в лесу, тo скoрoсть ветра занижена на 2-4 м/с пo сравнению с oткрытым местoм. Скoрoсть ветра над акватoриями крупных рек и oзёр, а также на вершинах хoлмoв на 2-5 м/с выше, чем в oбычных услoвиях.
Атмoсфернoе давление в разных тoчках местнoсти мoжет значительнo oтличаться oт давления на метеoстанции, в зависимoсти oт услoвий рельефа (при пoдъёме на 10 м давление пoнижается примернo на 1 мм рт.ст.).